MDT,Max TemperatureF,Mean TemperatureF,Min TemperatureF,Max Dew PointF,MeanDew PointF,Min DewpointF,Max Humidity, Mean Humidity, Min Humidity, Max Sea Level PressureIn, Mean Sea Level PressureIn, Min Sea Level PressureIn, Max VisibilityMiles, Mean VisibilityMiles, Min VisibilityMiles, Max Wind SpeedMPH, Mean Wind SpeedMPH, Max Gust SpeedMPH,PrecipitationIn, CloudCover, Events, WindDirDegrees
2013-7-1,83,70,57,58,52,45,93,60,26,30.22,30.18,30.15,10,10,7,17,7,23,0.00,2,,107
2013-7-2,87,70,52,52,49,48,83,55,27,30.17,30.09,30.01,10,10,10,14,6,21,0.00,1,,126
2013-7-3,93,76,59,53,48,46,62,42,21,29.99,29.86,29.75,10,10,10,20,9,25,0.00,0,,146
2013-7-4,93,78,62,69,59,48,84,55,26,29.83,29.75,29.70,10,9,2,10,4,15,0.18,2,Rain-Thunderstorm,224
2013-7-5,82,72,61,66,63,60,93,72,51,29.80,29.72,29.66,10,10,10,18,8,23,T,2,,88
2013-7-6,96,80,63,66,63,59,100,65,30,29.81,29.70,29.62,10,10,7,21,8,36,0.00,0,,343
2013-7-7,83,73,62,66,62,58,93,72,50,29.96,29.89,29.81,10,10,10,29,9,36,0.01,1,Rain,70
2013-7-8,89,76,62,70,64,59,90,68,46,30.00,29.91,29.80,10,10,10,33,7,41,T,1,Rain,110
2013-7-9,91,75,59,62,56,52,97,63,29,30.10,29.98,29.89,10,10,10,17,7,22,T,0,Rain,1
2013-7-10,89,72,54,64,59,53,93,67,40,30.12,30.02,29.89,10,10,10,20,8,25,0.00,0,,114
2013-7-11,105,84,62,64,60,51,87,53,18,29.90,29.78,29.65,10,10,10,24,11,31,0.00,0,,162
2013-7-12,97,85,73,64,57,51,58,40,22,29.85,29.71,29.59,10,10,10,32,12,41,0.00,0,,21
2013-7-13,95,82,68,67,62,57,76,55,33,29.96,29.86,29.80,10,10,10,15,6,22,0.00,1,,116
2013-7-14,78,73,67,67,63,60,90,77,64,30.17,30.06,29.87,10,10,6,28,13,36,0.07,6,Rain-Thunderstorm,15
2013-7-15,93,81,69,68,63,51,97,63,29,30.15,30.06,29.92,10,8,2,24,11,30,0.00,6,,160
2013-7-16,94,81,67,58,55,53,63,45,26,30.09,30.02,29.97,10,10,10,22,11,28,0.00,0,,182
2013-7-17,97,83,68,60,58,54,70,47,24,30.11,30.03,29.93,10,10,10,21,11,30,0.00,0,,185
2013-7-18,104,89,73,64,59,53,58,40,21,29.91,29.85,29.77,10,10,10,32,8,40,T,1,Thunderstorm,319
2013-7-19,92,77,62,60,53,50,68,47,25,30.02,29.93,29.83,10,10,10,21,6,24,0.16,1,Thunderstorm,141
2013-7-20,88,76,63,65,62,60,87,65,43,29.99,29.87,29.79,10,9,2,32,11,37,0.46,3,Rain-Thunderstorm,85
2013-7-21,95,76,57,63,58,52,93,60,26,29.83,29.74,29.64,10,10,10,29,7,37,0.00,0,,129
2013-7-22,89,75,61,62,56,52,78,54,29,29.86,29.81,29.69,10,10,10,18,8,23,0.00,0,,65
2013-7-23,85,73,61,60,58,55,90,65,40,30.10,29.98,29.85,10,10,7,29,9,35,0.11,4,Rain-Thunderstorm,97
2013-7-24,88,74,60,60,56,51,84,58,31,30.05,30.00,29.94,10,10,10,20,8,23,0.00,0,,88
2013-7-25,88,74,60,62,56,50,93,61,28,30.12,30.00,29.91,10,10,10,26,11,33,0.13,3,Rain,10
2013-7-26,77,65,52,49,46,41,83,57,31,30.29,30.20,30.15,10,10,10,17,7,22,0.00,4,,29
2013-7-27,77,62,47,45,43,41,80,56,31,30.20,30.10,29.99,10,10,10,14,8,21,0.00,1,,92
2013-7-28,83,69,55,54,49,43,66,51,35,29.99,29.93,29.87,10,10,10,22,12,29,T,5,,137
2013-7-29,89,76,62,62,57,52,87,61,34,30.00,29.89,29.84,10,10,10,18,8,23,0.00,4,,136
2013-7-30,88,74,60,68,61,57,93,69,45,30.17,30.06,29.93,10,8,1,47,8,60,0.57,3,Rain-Thunderstorm,72
2013-7-31,87,74,61,61,57,50,93,61,29,30.17,30.11,30.03,10,9,5,13,5,18,0.00,2,,337